Showing default

ANALYST OBJECT, 81264

Orbit data source: Space-Track

You're viewing an Uncataloged Satellite

Recently launched and/or uncataloged satellites may have evolving metadata. Metadata may include but not limited to: Owner, Maufacturer, Bus, Motor, and Mission.

Not visible in the next 10 days
Identifier
81264
Orbit
SSO
Country
Unknown
Related business
None
Manufacturer
Unknown
Mission
Spacecraft
Bus & Motor
Unknown
Mass
Unknown
Launch date (UTC)
Unknown
Launch vehicle
Unknown
Launch site
Unknown
Object type
Unknown
Shape & HBR
Unknown shape, 0.1 m
Radar Cross Section
RCS unknown

Expand to show TLE details & history
Last TLE update: 9 months ago

TLE from 9 months ago
1 81264U          25072.78526594 +.01075988 +00000+0 +10628-1 0  9998
2 81264  99.3982 268.5390 0017546 350.3135   9.7776 15.63301006570338
Epoch: 2025-03-13T18:50Z
TLE epoch observation values (Epoch: 2025-03-13T18:50:46.977Z)
Latitude
-0.00002°
Longitude
174.18874°
Altitude
369.528 km
Speed
7.694 km/s
True Right ascension
17h 54m 09s
True Declination
0° 00' 00"
Sunlit
Object was in daylight at epoch
Visualization orbit readout
Latitude
Unknown
Longitude
Unknown
Altitude
Unknown
Speed
Unknown
Apparent Right ascension
Unknown
Apparent Declination
Unknown
Sunlit
N/A
Visualization observer readout
Local Sidereal Time
05:22:27
Azimuth
Unknown
Elevation
Unknown
Doppler factor
Unknown
Orbital elements
Apogee altitude
386.985 km
Perigee altitude
363.287 km
Semi-major axis
6,753.273 km
Eccentricity
0.00175
Inclination
99.3982°
RAAN
268.539°
Arg. of periapsis
350.3135°
True anomaly
9.81182°
Mean anomaly
9.7776°
Eccentric anomaly
9.7947°
Mean motion
3.91085 °/min
Orbital period
92.05 mins
BSTAR
0.010628
Loading maneuver chart data...
Computing Atmospheric mass density...
Loading historical data...
Loading historical data...
Loading historical data...
Loading historical data...
Loading historical data...
Loading historical data...
Loading historical data...
Other satellites on launch

Documentation

Showing up to 5 results
|